PWSweather.com
Personal Weather Stations
Station Observations
SHAHALMS1
Eftra, Falkenberg, HA

EftraFalkenberg, HA

Lat: 56.85, Lon: 12.65

Elevation: 140

Station Type:

http://hem.passagen.se/risarp101

High Low Average
Temperature 71.6°F22.0°C 61.5°F16.4°C 65.5°F18.6°C
Dew Point 64.8°F18.2°C 60.1°F15.6°C 62.2°F16.8°C
Winds 8.7 mph 14.0 kmh 0.1 mph 0.2 kmh 4.0 mph S6.4 kmh S
Wind Gusts 20.8 mph33.5 kmh 1.4 mph2.3 kmh 11.0 mph17.7 kmh
Humidity 100% 74% 90%
Pressure 29.80 in1009.1 mb 29.65 in1004.1 mb -
Precipitation 0.10 in2.5 mm - -
Hour Temp Dew Point Humidity Winds Wind Gusts Pressure Precip Precip Rate Daily Precip Total
12:00 AM 62.1°F16.7°C 60.9°F16.1°C 96% 5.1 mph S8.2 kmh S 10.4 mph16.7 kmh 29.80 in1009.1 mb 0.04 in1.0 mm 0.00 in0.0 mm 0.04 in1.0 mm
12:15 AM 61.9°F16.6°C 61.0°F16.1°C 97% 5.8 mph S9.3 kmh S 16.1 mph25.9 kmh 29.80 in1009.1 mb 0.06 in1.5 mm 0.08 in2.0 mm 0.10 in2.5 mm
12:30 AM 61.9°F16.6°C 61.0°F16.1°C 97% 5.9 mph S9.5 kmh S 12.5 mph20.1 kmh 29.80 in1009.1 mb 0.06 in1.5 mm 0.00 in0.0 mm 0.10 in2.5 mm
12:45 AM 61.9°F16.6°C 61.0°F16.1°C 97% 4.3 mph S6.9 kmh S 10.0 mph16.1 kmh 29.80 in1009.1 mb 0.06 in1.5 mm 0.00 in0.0 mm 0.10 in2.5 mm
01:00 AM 61.9°F16.6°C 61.0°F16.1°C 97% 5.8 mph S9.3 kmh S 10.4 mph16.7 kmh 29.77 in1008.1 mb 0.06 in1.5 mm 0.00 in0.0 mm 0.10 in2.5 mm
01:15 AM 62.1°F16.7°C 61.2°F16.2°C 97% 6.0 mph S9.7 kmh S 14.0 mph22.5 kmh 29.77 in1008.1 mb 0.00 in0.0 mm 0.00 in0.0 mm 0.10 in2.5 mm
01:30 AM 62.1°F16.7°C 62.1°F16.7°C 100% 6.1 mph S9.8 kmh S 14.0 mph22.5 kmh 29.77 in1008.1 mb 0.00 in0.0 mm 0.00 in0.0 mm 0.10 in2.5 mm
01:45 AM 62.1°F16.7°C 62.1°F16.7°C 100% 5.8 mph S9.3 kmh S 15.4 mph24.8 kmh 29.77 in1008.1 mb 0.00 in0.0 mm 0.00 in0.0 mm 0.10 in2.5 mm
02:00 AM 62.1°F16.7°C 62.1°F16.7°C 100% 6.4 mph SSW10.3 kmh SSW 13.6 mph21.9 kmh 29.77 in1008.1 mb 0.00 in0.0 mm 0.00 in0.0 mm 0.10 in2.5 mm
02:15 AM 62.1°F16.7°C 62.1°F16.7°C 100% 5.6 mph S9.0 kmh S 11.8 mph19.0 kmh 29.77 in1008.1 mb 0.00 in0.0 mm 0.00 in0.0 mm 0.10 in2.5 mm
02:30 AM 62.2°F16.8°C 62.2°F16.8°C 100% 5.0 mph S8.0 kmh S 14.0 mph22.5 kmh 29.77 in1008.1 mb 0.00 in0.0 mm 0.00 in0.0 mm 0.10 in2.5 mm
02:45 AM 62.2°F16.8°C 62.2°F16.8°C 100% 5.6 mph S9.0 kmh S 14.3 mph23.0 kmh 29.77 in1008.1 mb 0.00 in0.0 mm 0.00 in0.0 mm 0.10 in2.5 mm
03:00 AM 62.2°F16.8°C 62.2°F16.8°C 100% 5.8 mph S9.3 kmh S 17.5 mph28.2 kmh 29.77 in1008.1 mb 0.00 in0.0 mm 0.00 in0.0 mm 0.10 in2.5 mm
03:15 AM 62.2°F16.8°C 62.2°F16.8°C 100% 4.9 mph SSW7.9 kmh SSW 9.7 mph15.6 kmh 29.77 in1008.1 mb 0.00 in0.0 mm 0.00 in0.0 mm 0.10 in2.5 mm
03:30 AM 62.1°F16.7°C 62.1°F16.7°C 100% 5.9 mph SSW9.5 kmh SSW 13.6 mph21.9 kmh 29.74 in1007.1 mb 0.00 in0.0 mm 0.00 in0.0 mm 0.10 in2.5 mm
03:45 AM 62.2°F16.8°C 62.2°F16.8°C 100% 3.9 mph SSW6.3 kmh SSW 10.0 mph16.1 kmh 29.77 in1008.1 mb 0.00 in0.0 mm 0.00 in0.0 mm 0.10 in2.5 mm
04:00 AM 62.1°F16.7°C 62.1°F16.7°C 100% 3.9 mph S6.3 kmh S 10.4 mph16.7 kmh 29.74 in1007.1 mb 0.00 in0.0 mm 0.00 in0.0 mm 0.10 in2.5 mm
04:15 AM 61.9°F16.6°C 61.9°F16.6°C 100% 3.9 mph S6.3 kmh S 14.0 mph22.5 kmh 29.74 in1007.1 mb 0.00 in0.0 mm 0.00 in0.0 mm 0.10 in2.5 mm
04:30 AM 61.7°F16.5°C 61.7°F16.5°C 100% 3.4 mph SSW5.5 kmh SSW 7.5 mph12.1 kmh 29.77 in1008.1 mb 0.00 in0.0 mm 0.00 in0.0 mm 0.10 in2.5 mm
04:45 AM 61.5°F16.4°C 61.5°F16.4°C 100% 2.9 mph SSW4.7 kmh SSW 8.6 mph13.8 kmh 29.74 in1007.1 mb 0.00 in0.0 mm 0.00 in0.0 mm 0.10 in2.5 mm
05:00 AM 61.7°F16.5°C 61.7°F16.5°C 100% 2.6 mph SW4.2 kmh SW 10.0 mph16.1 kmh 29.74 in1007.1 mb 0.00 in0.0 mm 0.00 in0.0 mm 0.10 in2.5 mm
05:15 AM 61.9°F16.6°C 61.9°F16.6°C 100% 4.6 mph S7.4 kmh S 10.4 mph16.7 kmh 29.74 in1007.1 mb 0.00 in0.0 mm 0.00 in0.0 mm 0.10 in2.5 mm
05:30 AM 62.1°F16.7°C 62.1°F16.7°C 100% 4.7 mph S7.6 kmh S 12.5 mph20.1 kmh 29.77 in1008.1 mb 0.00 in0.0 mm 0.00 in0.0 mm 0.10 in2.5 mm
05:45 AM 62.4°F16.9°C 62.4°F16.9°C 100% 4.9 mph SW7.9 kmh SW 11.5 mph18.5 kmh 29.77 in1008.1 mb 0.00 in0.0 mm 0.00 in0.0 mm 0.10 in2.5 mm
06:00 AM 62.6°F17.0°C 62.6°F17.0°C 100% 3.6 mph SSW5.8 kmh SSW 8.9 mph14.3 kmh 29.77 in1008.1 mb 0.00 in0.0 mm 0.00 in0.0 mm 0.10 in2.5 mm
06:15 AM 62.6°F17.0°C 62.6°F17.0°C 100% 5.7 mph S9.2 kmh S 13.6 mph21.9 kmh 29.77 in1008.1 mb 0.00 in0.0 mm 0.00 in0.0 mm 0.10 in2.5 mm
06:30 AM 62.8°F17.1°C 62.8°F17.1°C 100% 6.2 mph SSW10.0 kmh SSW 12.9 mph20.8 kmh 29.77 in1008.1 mb 0.00 in0.0 mm 0.00 in0.0 mm 0.10 in2.5 mm
06:45 AM 63.0°F17.2°C 63.0°F17.2°C 100% 5.6 mph S9.0 kmh S 12.2 mph19.6 kmh 29.77 in1008.1 mb 0.00 in0.0 mm 0.00 in0.0 mm 0.10 in2.5 mm
07:00 AM 63.7°F17.6°C 63.7°F17.6°C 100% 6.0 mph S9.7 kmh S 15.7 mph25.3 kmh 29.77 in1008.1 mb 0.00 in0.0 mm 0.00 in0.0 mm 0.10 in2.5 mm
07:15 AM 64.2°F17.9°C 64.2°F17.9°C 100% 4.4 mph S7.1 kmh S 12.2 mph19.6 kmh 29.77 in1008.1 mb 0.00 in0.0 mm 0.00 in0.0 mm 0.10 in2.5 mm
07:30 AM 64.6°F18.1°C 64.6°F18.1°C 100% 4.8 mph S7.7 kmh S 10.0 mph16.1 kmh 29.77 in1008.1 mb 0.00 in0.0 mm 0.00 in0.0 mm 0.10 in2.5 mm
07:45 AM 64.8°F18.2°C 64.8°F18.2°C 100% 4.6 mph S7.4 kmh S 11.5 mph18.5 kmh 29.77 in1008.1 mb 0.00 in0.0 mm 0.00 in0.0 mm 0.10 in2.5 mm
08:00 AM 65.3°F18.5°C 64.4°F18.0°C 97% 3.6 mph S5.8 kmh S 8.6 mph13.8 kmh 29.77 in1008.1 mb 0.00 in0.0 mm 0.00 in0.0 mm 0.10 in2.5 mm
08:15 AM 66.0°F18.9°C 64.8°F18.2°C 96% 3.7 mph S6.0 kmh S 9.7 mph15.6 kmh 29.77 in1008.1 mb 0.00 in0.0 mm 0.00 in0.0 mm 0.10 in2.5 mm
08:30 AM 65.8°F18.8°C 64.1°F17.8°C 94% 4.7 mph S7.6 kmh S 10.0 mph16.1 kmh 29.77 in1008.1 mb 0.00 in0.0 mm 0.00 in0.0 mm 0.10 in2.5 mm
08:45 AM 65.7°F18.7°C 63.6°F17.6°C 93% 4.2 mph S6.8 kmh S 11.1 mph17.9 kmh 29.77 in1008.1 mb 0.00 in0.0 mm 0.00 in0.0 mm 0.10 in2.5 mm
09:00 AM 65.8°F18.8°C 64.1°F17.8°C 94% 4.9 mph SSW7.9 kmh SSW 12.9 mph20.8 kmh 29.77 in1008.1 mb 0.00 in0.0 mm 0.00 in0.0 mm 0.10 in2.5 mm
09:15 AM 66.2°F19.0°C 64.4°F18.0°C 94% 4.5 mph SW7.2 kmh SW 12.2 mph19.6 kmh 29.77 in1008.1 mb 0.00 in0.0 mm 0.00 in0.0 mm 0.10 in2.5 mm
09:30 AM 66.2°F19.0°C 64.1°F17.8°C 93% 5.3 mph S8.5 kmh S 12.9 mph20.8 kmh 29.77 in1008.1 mb 0.00 in0.0 mm 0.00 in0.0 mm 0.10 in2.5 mm
09:45 AM 66.4°F19.1°C 64.0°F17.8°C 92% 8.6 mph S13.8 kmh S 16.8 mph27.0 kmh 29.77 in1008.1 mb 0.00 in0.0 mm 0.00 in0.0 mm 0.10 in2.5 mm
10:00 AM 66.9°F19.4°C 64.5°F18.1°C 92% 6.2 mph S10.0 kmh S 17.2 mph27.7 kmh 29.77 in1008.1 mb 0.00 in0.0 mm 0.00 in0.0 mm 0.10 in2.5 mm
10:15 AM 67.5°F19.7°C 64.1°F17.8°C 89% 7.7 mph S12.4 kmh S 15.4 mph24.8 kmh 29.77 in1008.1 mb 0.00 in0.0 mm 0.00 in0.0 mm 0.10 in2.5 mm
10:30 AM 67.5°F19.7°C 64.1°F17.8°C 89% 7.1 mph S11.4 kmh S 19.7 mph31.7 kmh 29.77 in1008.1 mb 0.00 in0.0 mm 0.00 in0.0 mm 0.10 in2.5 mm
10:45 AM 67.8°F19.9°C 64.5°F18.1°C 89% 7.0 mph SSW11.3 kmh SSW 16.8 mph27.0 kmh 29.77 in1008.1 mb 0.00 in0.0 mm 0.00 in0.0 mm 0.10 in2.5 mm
11:00 AM 67.6°F19.8°C 63.6°F17.6°C 87% 4.9 mph S7.9 kmh S 10.4 mph16.7 kmh 29.77 in1008.1 mb 0.00 in0.0 mm 0.00 in0.0 mm 0.10 in2.5 mm
11:15 AM 68.0°F20.0°C 64.0°F17.8°C 87% 7.0 mph S11.3 kmh S 13.6 mph21.9 kmh 29.77 in1008.1 mb 0.00 in0.0 mm 0.00 in0.0 mm 0.10 in2.5 mm
11:30 AM 68.0°F20.0°C 63.3°F17.4°C 85% 8.7 mph S14.0 kmh S 16.8 mph27.0 kmh 29.77 in1008.1 mb 0.00 in0.0 mm 0.00 in0.0 mm 0.10 in2.5 mm
11:45 AM 67.6°F19.8°C 63.0°F17.2°C 85% 6.8 mph S10.9 kmh S 14.3 mph23.0 kmh 29.77 in1008.1 mb 0.00 in0.0 mm 0.00 in0.0 mm 0.10 in2.5 mm
12:00 PM 68.0°F20.0°C 63.7°F17.6°C 86% 7.0 mph S11.3 kmh S 20.8 mph33.5 kmh 29.80 in1009.1 mb 0.00 in0.0 mm 0.00 in0.0 mm 0.10 in2.5 mm
12:15 PM 68.5°F20.3°C 63.8°F17.7°C 85% 5.7 mph S9.2 kmh S 14.0 mph22.5 kmh 29.80 in1009.1 mb 0.00 in0.0 mm 0.00 in0.0 mm 0.10 in2.5 mm
12:30 PM 69.8°F21.0°C 64.7°F18.2°C 84% 5.9 mph S9.5 kmh S 13.6 mph21.9 kmh 29.77 in1008.1 mb 0.00 in0.0 mm 0.00 in0.0 mm 0.10 in2.5 mm
12:45 PM 70.5°F21.4°C 64.4°F18.0°C 81% 5.3 mph S8.5 kmh S 14.0 mph22.5 kmh 29.77 in1008.1 mb 0.00 in0.0 mm 0.00 in0.0 mm 0.10 in2.5 mm
01:00 PM 70.3°F21.3°C 63.5°F17.5°C 79% 5.1 mph S8.2 kmh S 11.5 mph18.5 kmh 29.77 in1008.1 mb 0.00 in0.0 mm 0.00 in0.0 mm 0.10 in2.5 mm
01:15 PM 69.8°F21.0°C 62.6°F17.0°C 78% 5.5 mph S8.9 kmh S 14.0 mph22.5 kmh 29.77 in1008.1 mb 0.00 in0.0 mm 0.00 in0.0 mm 0.10 in2.5 mm
01:30 PM 70.0°F21.1°C 62.8°F17.1°C 78% 5.5 mph S8.9 kmh S 12.5 mph20.1 kmh 29.77 in1008.1 mb 0.00 in0.0 mm 0.00 in0.0 mm 0.10 in2.5 mm
01:45 PM 70.7°F21.5°C 63.1°F17.3°C 77% 5.4 mph SSW8.7 kmh SSW 13.6 mph21.9 kmh 29.77 in1008.1 mb 0.00 in0.0 mm 0.00 in0.0 mm 0.10 in2.5 mm
02:00 PM 71.1°F21.7°C 62.7°F17.1°C 75% 5.5 mph SSW8.9 kmh SSW 17.2 mph27.7 kmh 29.77 in1008.1 mb 0.00 in0.0 mm 0.00 in0.0 mm 0.10 in2.5 mm
02:15 PM 71.6°F22.0°C 62.9°F17.2°C 74% 5.8 mph S9.3 kmh S 12.9 mph20.8 kmh 29.77 in1008.1 mb 0.00 in0.0 mm 0.00 in0.0 mm 0.10 in2.5 mm
02:30 PM 71.1°F21.7°C 62.4°F16.9°C 74% 4.0 mph S6.4 kmh S 12.2 mph19.6 kmh 29.74 in1007.1 mb 0.00 in0.0 mm 0.00 in0.0 mm 0.10 in2.5 mm
02:45 PM 71.1°F21.7°C 62.4°F16.9°C 74% 4.6 mph S7.4 kmh S 11.8 mph19.0 kmh 29.74 in1007.1 mb 0.00 in0.0 mm 0.00 in0.0 mm 0.10 in2.5 mm
03:00 PM 70.7°F21.5°C 62.0°F16.7°C 74% 5.0 mph SSW8.0 kmh SSW 12.5 mph20.1 kmh 29.74 in1007.1 mb 0.00 in0.0 mm 0.00 in0.0 mm 0.10 in2.5 mm
03:15 PM 70.5°F21.4°C 62.2°F16.8°C 75% 3.9 mph S6.3 kmh S 9.3 mph15.0 kmh 29.77 in1008.1 mb 0.00 in0.0 mm 0.00 in0.0 mm 0.10 in2.5 mm
03:30 PM 70.5°F21.4°C 61.8°F16.6°C 74% 4.2 mph SSW6.8 kmh SSW 10.4 mph16.7 kmh 29.74 in1007.1 mb 0.00 in0.0 mm 0.00 in0.0 mm 0.10 in2.5 mm
03:45 PM 70.2°F21.2°C 61.9°F16.6°C 75% 2.4 mph S3.9 kmh S 7.2 mph11.6 kmh 29.74 in1007.1 mb 0.00 in0.0 mm 0.00 in0.0 mm 0.10 in2.5 mm
04:00 PM 70.0°F21.1°C 61.7°F16.5°C 75% 3.1 mph SSW5.0 kmh SSW 8.9 mph14.3 kmh 29.74 in1007.1 mb 0.00 in0.0 mm 0.00 in0.0 mm 0.10 in2.5 mm
04:15 PM 70.7°F21.5°C 62.4°F16.9°C 75% 3.3 mph SSW5.3 kmh SSW 7.5 mph12.1 kmh 29.71 in1006.1 mb 0.00 in0.0 mm 0.00 in0.0 mm 0.10 in2.5 mm
04:30 PM 70.3°F21.3°C 62.0°F16.7°C 75% 3.7 mph SSW6.0 kmh SSW 10.0 mph16.1 kmh 29.74 in1007.1 mb 0.00 in0.0 mm 0.00 in0.0 mm 0.10 in2.5 mm
04:45 PM 69.8°F21.0°C 61.9°F16.6°C 76% 2.1 mph WSW3.4 kmh WSW 7.5 mph12.1 kmh 29.71 in1006.1 mb 0.00 in0.0 mm 0.00 in0.0 mm 0.10 in2.5 mm
05:00 PM 68.9°F20.5°C 61.8°F16.6°C 78% 3.4 mph S5.5 kmh S 9.7 mph15.6 kmh 29.74 in1007.1 mb 0.00 in0.0 mm 0.00 in0.0 mm 0.10 in2.5 mm
05:15 PM 68.7°F20.4°C 61.9°F16.6°C 79% 2.1 mph S3.4 kmh S 10.0 mph16.1 kmh 29.77 in1008.1 mb 0.00 in0.0 mm 0.00 in0.0 mm 0.10 in2.5 mm
05:30 PM 68.2°F20.1°C 61.8°F16.6°C 80% 3.2 mph S5.1 kmh S 11.1 mph17.9 kmh 29.74 in1007.1 mb 0.00 in0.0 mm 0.00 in0.0 mm 0.10 in2.5 mm
05:45 PM 68.0°F20.0°C 61.9°F16.6°C 81% 2.4 mph SSW3.9 kmh SSW 8.6 mph13.8 kmh 29.74 in1007.1 mb 0.00 in0.0 mm 0.00 in0.0 mm 0.10 in2.5 mm
06:00 PM 67.5°F19.7°C 61.4°F16.3°C 81% 3.0 mph S4.8 kmh S 8.9 mph14.3 kmh 29.77 in1008.1 mb 0.00 in0.0 mm 0.00 in0.0 mm 0.10 in2.5 mm
06:15 PM 66.9°F19.4°C 60.9°F16.1°C 81% 3.5 mph S5.6 kmh S 9.3 mph15.0 kmh 29.74 in1007.1 mb 0.00 in0.0 mm 0.00 in0.0 mm 0.10 in2.5 mm
06:30 PM 66.6°F19.2°C 60.9°F16.1°C 82% 3.6 mph S5.8 kmh S 10.4 mph16.7 kmh 29.74 in1007.1 mb 0.00 in0.0 mm 0.00 in0.0 mm 0.10 in2.5 mm
06:45 PM 66.2°F19.0°C 60.9°F16.1°C 83% 1.6 mph S2.6 kmh S 7.5 mph12.1 kmh 29.77 in1008.1 mb 0.00 in0.0 mm 0.00 in0.0 mm 0.10 in2.5 mm
07:00 PM 65.8°F18.8°C 60.9°F16.1°C 84% 1.4 mph SE2.3 kmh SE 8.6 mph13.8 kmh 29.74 in1007.1 mb 0.00 in0.0 mm 0.00 in0.0 mm 0.10 in2.5 mm
07:15 PM 65.3°F18.5°C 60.7°F15.9°C 85% 2.4 mph S3.9 kmh S 8.9 mph14.3 kmh 29.71 in1006.1 mb 0.00 in0.0 mm 0.00 in0.0 mm 0.10 in2.5 mm
07:30 PM 64.9°F18.3°C 60.3°F15.7°C 85% 1.2 mph SSE1.9 kmh SSE 6.4 mph10.3 kmh 29.71 in1006.1 mb 0.00 in0.0 mm 0.00 in0.0 mm 0.10 in2.5 mm
07:45 PM 64.8°F18.2°C 60.5°F15.8°C 86% 2.5 mph SE4.0 kmh SE 7.2 mph11.6 kmh 29.71 in1006.1 mb 0.00 in0.0 mm 0.00 in0.0 mm 0.10 in2.5 mm
08:00 PM 64.4°F18.0°C 60.1°F15.6°C 86% 3.2 mph SSE5.1 kmh SSE 10.0 mph16.1 kmh 29.71 in1006.1 mb 0.00 in0.0 mm 0.00 in0.0 mm 0.10 in2.5 mm
08:15 PM 64.2°F17.9°C 60.3°F15.7°C 87% 2.8 mph SE4.5 kmh SE 8.6 mph13.8 kmh 29.71 in1006.1 mb 0.00 in0.0 mm 0.00 in0.0 mm 0.10 in2.5 mm
08:30 PM 64.0°F17.8°C 60.1°F15.6°C 87% 2.5 mph SE4.0 kmh SE 8.6 mph13.8 kmh 29.71 in1006.1 mb 0.00 in0.0 mm 0.00 in0.0 mm 0.10 in2.5 mm
08:45 PM 63.9°F17.7°C 60.2°F15.7°C 88% 1.0 mph SE1.6 kmh SE 7.9 mph12.7 kmh 29.71 in1006.1 mb 0.00 in0.0 mm 0.00 in0.0 mm 0.10 in2.5 mm
09:00 PM 63.7°F17.6°C 60.1°F15.6°C 88% 0.9 mph SSE1.4 kmh SSE 6.8 mph10.9 kmh 29.68 in1005.1 mb 0.00 in0.0 mm 0.00 in0.0 mm 0.10 in2.5 mm
09:15 PM 63.5°F17.5°C 60.2°F15.7°C 89% 3.5 mph SE5.6 kmh SE 6.4 mph10.3 kmh 29.68 in1005.1 mb 0.00 in0.0 mm 0.00 in0.0 mm 0.10 in2.5 mm
09:30 PM 63.5°F17.5°C 60.2°F15.7°C 89% 3.0 mph SE4.8 kmh SE 6.8 mph10.9 kmh 29.68 in1005.1 mb 0.00 in0.0 mm 0.00 in0.0 mm 0.10 in2.5 mm
09:45 PM 63.3°F17.4°C 60.3°F15.7°C 90% 1.7 mph SSE2.7 kmh SSE 8.9 mph14.3 kmh 29.68 in1005.1 mb 0.00 in0.0 mm 0.00 in0.0 mm 0.10 in2.5 mm
10:00 PM 63.3°F17.4°C 60.3°F15.7°C 90% 1.2 mph SSE1.9 kmh SSE 6.4 mph10.3 kmh 29.65 in1004.1 mb 0.00 in0.0 mm 0.00 in0.0 mm 0.10 in2.5 mm
10:15 PM 63.1°F17.3°C 60.2°F15.7°C 90% 2.0 mph SE3.2 kmh SE 9.3 mph15.0 kmh 29.65 in1004.1 mb 0.00 in0.0 mm 0.00 in0.0 mm 0.10 in2.5 mm
10:30 PM 63.1°F17.3°C 60.5°F15.8°C 91% 2.0 mph SE3.2 kmh SE 8.6 mph13.8 kmh 29.68 in1005.1 mb 0.00 in0.0 mm 0.00 in0.0 mm 0.10 in2.5 mm
10:45 PM 63.1°F17.3°C 60.5°F15.8°C 91% 1.4 mph S2.3 kmh S 6.1 mph9.8 kmh 29.68 in1005.1 mb 0.00 in0.0 mm 0.00 in0.0 mm 0.10 in2.5 mm
11:00 PM 63.0°F17.2°C 60.3°F15.7°C 91% 1.1 mph SE1.8 kmh SE 6.1 mph9.8 kmh 29.68 in1005.1 mb 0.00 in0.0 mm 0.00 in0.0 mm 0.06 in1.5 mm
11:15 PM 63.0°F17.2°C 60.6°F15.9°C 92% 0.1 mph S0.2 kmh S 1.4 mph2.3 kmh 29.68 in1005.1 mb 0.00 in0.0 mm 0.00 in0.0 mm 0.06 in1.5 mm
11:30 PM 63.0°F17.2°C 60.9°F16.1°C 93% 3.4 mph S5.5 kmh S 10.4 mph16.7 kmh 29.71 in1006.1 mb 0.00 in0.0 mm 0.00 in0.0 mm 0.06 in1.5 mm
11:45 PM 63.0°F17.2°C 61.2°F16.2°C 94% 4.3 mph S6.9 kmh S 12.5 mph20.1 kmh 29.68 in1005.1 mb 0.00 in0.0 mm 0.00 in0.0 mm 0.06 in1.5 mm